Powrót do katalogu

STARLINK-3652

AktywnyŁącznośćVLEO
NORAD 51991·PAYLOAD·🇺🇸 United States

Wystrzelony Mar 9, 2022 z Cape Canaveral Space Force Station

Loading…

Następne Przeloty (najbliższe 24 godziny)

TLE

ŚwieżeSource: CelesTrak SupGP

Epoka: Sep 15, 2026, 02:28 UTC

1 51991C 22025AM  26258.10326389 -.00034201  00000+0 -10100-2 0  2584
2 51991  53.1575 253.0071 0001355  83.0393 248.8472 15.34422347    12

Śledź STARLINK-3652 w czasie rzeczywistym z AllMySat

Download on the App Store